Terug naar catalogus

IRIDE-MS2-HEO-12

ActiefWetenschapSSO
NORAD 68984·PAYLOAD·🇮🇹 Italy

Gelanceerd May 3, 2026 vanaf Vandenberg Space Force Base

Loading…

Volgende Passages (komende 24 uur)

TLE

VersSource: Space-Track

Epoch: Sep 14, 2026, 11:32 UTC

1 68984U 26100E   26257.48070227  .00001007  00000-0  10786-3 0  9999
2 68984  97.7212 153.0395 0003086 189.9751 170.1407 14.90842531 20007

Volg IRIDE-MS2-HEO-12 in realtime met AllMySat

Download on the App Store